| time (UTC) | temp F | wind direction | speed MPH | gust MPH | rain 1hr in | rain 24hr in | rain mn in | humidity % | barometer mb |
| 20260504191014 | 68 | 188 | 7.0 | 18.0 | 0.00 | 0.00 | 0.00 | 43 | 1008.4 |
| 20260504190514 | 67 | 211 | 6.0 | 16.0 | 0.00 | 0.00 | 0.00 | 42 | 1008.5 |
| 20260504190030 | 66 | 218 | 5.0 | 16.0 | 0.00 | 0.00 | 0.00 | 48 | 1008.5 |
| 20260504185512 | 66 | 209 | 9.0 | 16.0 | 0.00 | 0.00 | 0.00 | 46 | 1008.5 |
| 20260504185016 | 65 | 209 | 6.0 | 11.0 | 0.00 | 0.00 | 0.00 | 46 | 1008.5 |
| 20260504184527 | 66 | 200 | 5.0 | 12.0 | 0.00 | 0.00 | 0.00 | 46 | 1008.5 |
| 20260504184015 | 65 | 219 | 6.0 | 16.0 | 0.00 | 0.00 | 0.00 | 48 | 1008.6 |
| 20260504183030 | 65 | 184 | 7.0 | 16.0 | 0.00 | 0.00 | 0.00 | 45 | 1008.6 |
| 20260504182509 | 65 | 248 | 8.0 | 19.0 | 0.00 | 0.00 | 0.00 | 47 | 1008.7 |
| 20260504182010 | 65 | 179 | 11.0 | 19.0 | 0.00 | 0.00 | 0.00 | 43 | 1008.7 |
| 20260504181531 | 66 | 232 | 7.0 | 20.0 | 0.00 | 0.00 | 0.00 | 45 | 1008.6 |
| 20260504181010 | 65 | 221 | 8.0 | 20.0 | 0.00 | 0.00 | 0.00 | 44 | 1008.7 |
| 20260504180511 | 66 | 180 | 4.0 | 14.0 | 0.00 | 0.00 | 0.00 | 48 | 1008.8 |
| 20260504180028 | 67 | 244 | 6.0 | 19.0 | 0.00 | 0.00 | 0.00 | 43 | 1008.7 |
| 20260504175512 | 66 | 239 | 7.0 | 19.0 | 0.00 | 0.00 | 0.00 | 44 | 1008.8 |
| 20260504175015 | 65 | 204 | 8.0 | 18.0 | 0.00 | 0.00 | 0.00 | 42 | 1008.8 |
| 20260504174530 | 66 | 204 | 6.0 | 18.0 | 0.00 | 0.00 | 0.00 | 47 | 1008.9 |
| 20260504174010 | 65 | 200 | 8.0 | 17.0 | 0.00 | 0.00 | 0.00 | 46 | 1008.8 |
| 20260504173512 | 65 | 189 | 5.0 | 18.0 | 0.00 | 0.00 | 0.00 | 47 | 1008.9 |
| 20260504173030 | 65 | 211 | 8.0 | 18.0 | 0.00 | 0.00 | 0.00 | 47 | 1008.9 |
| 20260504172512 | 66 | 209 | 6.0 | 13.0 | 0.00 | 0.00 | 0.00 | 43 | 1009.1 |
| 20260504172012 | 65 | 266 | 7.0 | 13.0 | 0.00 | 0.00 | 0.00 | 47 | 1009.3 |
| 20260504171528 | 64 | 230 | 6.0 | 11.0 | 0.00 | 0.00 | 0.00 | 44 | 1009.3 |
| 20260504171012 | 65 | 194 | 4.0 | 13.0 | 0.00 | 0.00 | 0.00 | 45 | 1009.2 |
| 20260504170512 | 65 | 175 | 8.0 | 16.0 | 0.00 | 0.00 | 0.00 | 49 | 1009.3 |
| 20260504151013 | 60 | 162 | 10.0 | 19.0 | 0.00 | 0.00 | 0.00 | 46 | 1010.7 |
| 20260504150517 | 60 | 183 | 9.0 | 17.0 | 0.00 | 0.00 | 0.00 | 50 | 1010.7 |
| 20260504141012 | 56 | 192 | 7.0 | 17.0 | 0.00 | 0.00 | 0.00 | 51 | 1011.0 |
| 20260504140510 | 56 | 227 | 8.0 | 17.0 | 0.00 | 0.00 | 0.00 | 50 | 1011.1 |
| 20260504130509 | 52 | 213 | 7.0 | 12.0 | 0.00 | 0.00 | 0.00 | 57 | 1011.5 |
| 20260504110512 | 41 | 190 | 1.0 | 3.0 | 0.00 | 0.00 | 0.00 | 74 | 1011.8 |
| 20260504100513 | 35 | 0 | 0.0 | 2.0 | 0.00 | 0.00 | 0.00 | 84 | 1011.6 |
| 20260504081530 | 35 | 355 | 0.0 | 3.0 | 0.00 | 0.00 | 0.00 | 85 | 1011.9 |
| 20260504081013 | 35 | 355 | 1.0 | 3.0 | 0.00 | 0.00 | 0.00 | 84 | 1011.9 |
| 20260504080513 | 35 | 355 | 0.0 | 2.0 | 0.00 | 0.00 | 0.00 | 85 | 1011.9 |
| 20260504050511 | 38 | 0 | 0.0 | 0.0 | 0.00 | 0.00 | 0.00 | 76 | 1011.6 |
| 20260504045511 | 39 | 0 | 0.0 | 0.0 | 0.00 | 0.00 | 0.00 | 75 | 1011.6 |
| 20260504045011 | 38 | 0 | 0.0 | 0.0 | 0.00 | 0.00 | 0.00 | 76 | 1011.6 |
| 20260504044535 | 38 | 0 | 0.0 | 0.0 | 0.00 | 0.00 | 0.00 | 75 | 1011.6 |
| 20260504044011 | 38 | 0 | 0.0 | 0.0 | 0.00 | 0.00 | 0.00 | 75 | 1011.6 |
| 20260504043512 | 38 | 0 | 0.0 | 0.0 | 0.00 | 0.00 | 0.00 | 75 | 1011.6 |
| 20260504043040 | 39 | 0 | 0.0 | 0.0 | 0.00 | 0.00 | 0.00 | 74 | 1011.6 |
| 20260504042511 | 40 | 0 | 0.0 | 0.0 | 0.00 | 0.00 | 0.00 | 73 | 1011.6 |
| 20260504042014 | 40 | 0 | 0.0 | 0.0 | 0.00 | 0.00 | 0.00 | 73 | 1011.6 |
| 20260504041528 | 40 | 0 | 0.0 | 0.0 | 0.00 | 0.00 | 0.00 | 72 | 1011.5 |
| 20260504041011 | 40 | 0 | 0.0 | 0.0 | 0.00 | 0.00 | 0.00 | 72 | 1011.5 |
| 20260504040513 | 40 | 0 | 0.0 | 0.0 | 0.00 | 0.00 | 0.00 | 72 | 1011.5 |
| 20260504040033 | 41 | 0 | 0.0 | 0.0 | 0.00 | 0.00 | 0.00 | 71 | 1011.5 |
| 20260504035514 | 41 | 0 | 0.0 | 0.0 | 0.00 | 0.00 | 0.00 | 70 | 1011.5 |
| 20260504035012 | 41 | 0 | 0.0 | 0.0 | 0.00 | 0.00 | 0.00 | 69 | 1011.6 |
| 20260504034534 | 42 | 0 | 0.0 | 0.0 | 0.00 | 0.00 | 0.00 | 68 | 1011.5 |
| 20260504034014 | 42 | 0 | 0.0 | 0.0 | 0.00 | 0.00 | 0.00 | 68 | 1011.5 |
| 20260504033514 | 42 | 0 | 0.0 | 0.0 | 0.00 | 0.00 | 0.00 | 67 | 1011.4 |
| 20260504033029 | 43 | 0 | 0.0 | 0.0 | 0.00 | 0.00 | 0.00 | 66 | 1011.4 |
| 20260504032513 | 44 | 0 | 0.0 | 0.0 | 0.00 | 0.00 | 0.00 | 65 | 1011.5 |
| 20260504032015 | 44 | 0 | 0.0 | 0.0 | 0.00 | 0.00 | 0.00 | 63 | 1011.4 |
| 20260504031530 | 45 | 0 | 0.0 | 0.0 | 0.00 | 0.00 | 0.00 | 63 | 1011.4 |
| 20260504031012 | 45 | 0 | 0.0 | 0.0 | 0.00 | 0.00 | 0.00 | 63 | 1011.4 |
| 20260504030513 | 45 | 0 | 0.0 | 0.0 | 0.00 | 0.00 | 0.00 | 62 | 1011.4 |
| 20260504030030 | 45 | 0 | 0.0 | 0.0 | 0.00 | 0.00 | 0.00 | 63 | 1011.4 |
| 20260504025515 | 46 | 0 | 0.0 | 0.0 | 0.00 | 0.00 | 0.00 | 62 | 1011.4 |
| 20260504025014 | 45 | 0 | 0.0 | 0.0 | 0.00 | 0.00 | 0.00 | 63 | 1011.4 |
| 20260504024530 | 45 | 0 | 0.0 | 0.0 | 0.00 | 0.00 | 0.00 | 62 | 1011.4 |
| 20260504024013 | 45 | 0 | 0.0 | 0.0 | 0.00 | 0.00 | 0.00 | 63 | 1011.5 |
| 20260504023513 | 45 | 0 | 0.0 | 0.0 | 0.00 | 0.00 | 0.00 | 64 | 1011.4 |
| 20260504023031 | 44 | 0 | 0.0 | 0.0 | 0.00 | 0.00 | 0.00 | 65 | 1011.5 |
| 20260504022514 | 44 | 0 | 0.0 | 0.0 | 0.00 | 0.00 | 0.00 | 65 | 1011.5 |
| 20260504022012 | 44 | 0 | 0.0 | 0.0 | 0.00 | 0.00 | 0.00 | 65 | 1011.5 |
| 20260504021534 | 44 | 0 | 0.0 | 0.0 | 0.00 | 0.00 | 0.00 | 65 | 1011.5 |
| 20260504021012 | 44 | 0 | 0.0 | 0.0 | 0.00 | 0.00 | 0.00 | 64 | 1011.5 |
| 20260504020512 | 45 | 0 | 0.0 | 0.0 | 0.00 | 0.00 | 0.00 | 64 | 1011.6 |
| 20260504020037 | 45 | 0 | 0.0 | 0.0 | 0.00 | 0.00 | 0.00 | 64 | 1011.4 |
| 20260504015513 | 44 | 0 | 0.0 | 0.0 | 0.00 | 0.00 | 0.00 | 64 | 1011.3 |
| 20260504015014 | 44 | 0 | 0.0 | 0.0 | 0.00 | 0.00 | 0.00 | 65 | 1011.4 |
| 20260504014536 | 44 | 0 | 0.0 | 0.0 | 0.00 | 0.00 | 0.00 | 65 | 1011.4 |
| 20260504014013 | 44 | 0 | 0.0 | 0.0 | 0.00 | 0.00 | 0.00 | 65 | 1011.3 |
| 20260504013515 | 44 | 0 | 0.0 | 0.0 | 0.00 | 0.00 | 0.00 | 65 | 1011.3 |
| 20260504013031 | 44 | 0 | 0.0 | 0.0 | 0.00 | 0.00 | 0.00 | 65 | 1011.2 |
| 20260504012513 | 44 | 0 | 0.0 | 0.0 | 0.00 | 0.00 | 0.00 | 65 | 1011.2 |
| 20260504012013 | 44 | 0 | 0.0 | 0.0 | 0.00 | 0.00 | 0.00 | 65 | 1011.1 |
| 20260504011529 | 44 | 0 | 0.0 | 0.0 | 0.00 | 0.00 | 0.00 | 64 | 1011.2 |
| 20260504011012 | 45 | 0 | 0.0 | 0.0 | 0.00 | 0.00 | 0.00 | 63 | 1011.1 |
| 20260504010516 | 45 | 0 | 0.0 | 0.0 | 0.00 | 0.00 | 0.00 | 63 | 1011.0 |
| 20260504010030 | 45 | 0 | 0.0 | 0.0 | 0.00 | 0.00 | 0.00 | 63 | 1011.0 |
| 20260504005514 | 45 | 0 | 0.0 | 0.0 | 0.00 | 0.00 | 0.00 | 63 | 1011.0 |
| 20260504005011 | 45 | 0 | 0.0 | 0.0 | 0.00 | 0.00 | 0.00 | 63 | 1010.8 |
| 20260504004534 | 45 | 0 | 0.0 | 0.0 | 0.00 | 0.00 | 0.00 | 63 | 1011.0 |
| 20260504004013 | 45 | 0 | 0.0 | 0.0 | 0.00 | 0.00 | 0.00 | 63 | 1010.9 |
| 20260504003514 | 46 | 0 | 0.0 | 0.0 | 0.00 | 0.00 | 0.00 | 62 | 1010.9 |
| 20260504003032 | 46 | 0 | 0.0 | 0.0 | 0.00 | 0.00 | 0.00 | 62 | 1010.9 |
| 20260504002512 | 46 | 0 | 0.0 | 0.0 | 0.00 | 0.00 | 0.00 | 61 | 1010.9 |
| 20260504002014 | 46 | 0 | 0.0 | 0.0 | 0.00 | 0.00 | 0.00 | 61 | 1010.8 |
| 20260504001535 | 47 | 0 | 0.0 | 0.0 | 0.00 | 0.00 | 0.00 | 59 | 1010.7 |
| 20260504001013 | 48 | 0 | 0.0 | 0.0 | 0.00 | 0.00 | 0.00 | 59 | 1010.7 |
| 20260504000512 | 49 | 0 | 0.0 | 1.0 | 0.00 | 0.00 | 0.00 | 57 | 1010.7 |
| 20260504000029 | 50 | 0 | 0.0 | 3.0 | 0.00 | 0.00 | 0.00 | 55 | 1010.7 |
| 20260503235516 | 51 | 0 | 0.0 | 3.0 | 0.00 | 0.00 | 0.00 | 52 | 1010.7 |
| 20260503235013 | 52 | 0 | 0.0 | 1.0 | 0.00 | 0.00 | 0.00 | 53 | 1010.6 |
| 20260503234530 | 52 | 0 | 0.0 | 3.0 | 0.00 | 0.00 | 0.00 | 51 | 1010.6 |
| 20260503234012 | 52 | 0 | 0.0 | 3.0 | 0.00 | 0.00 | 0.00 | 53 | 1010.7 |
| 20260503233513 | 52 | 261 | 1.0 | 4.0 | 0.00 | 0.00 | 0.00 | 53 | 1010.6 |
| 20260503233030 | 52 | 0 | 1.0 | 4.0 | 0.00 | 0.00 | 0.00 | 48 | 1010.6 |
| 20260503232515 | 53 | 304 | 1.0 | 5.0 | 0.00 | 0.00 | 0.00 | 48 | 1010.6 |
| 20260503232015 | 53 | 298 | 2.0 | 9.0 | 0.00 | 0.00 | 0.00 | 47 | 1010.5 |
| 20260503231532 | 53 | 288 | 2.0 | 11.0 | 0.00 | 0.00 | 0.00 | 48 | 1010.6 |
| 20260503231011 | 53 | 284 | 6.0 | 11.0 | 0.00 | 0.00 | 0.00 | 46 | 1010.6 |
| 20260503230514 | 53 | 290 | 3.0 | 10.0 | 0.00 | 0.00 | 0.00 | 46 | 1010.6 |
| 20260503230032 | 53 | 278 | 3.0 | 10.0 | 0.00 | 0.00 | 0.00 | 46 | 1010.6 |
| 20260503225513 | 54 | 316 | 4.0 | 14.0 | 0.00 | 0.00 | 0.00 | 45 | 1010.5 |
| 20260503225013 | 54 | 300 | 9.0 | 14.0 | 0.00 | 0.00 | 0.00 | 45 | 1010.5 |
| 20260503224529 | 54 | 264 | 4.0 | 14.0 | 0.00 | 0.00 | 0.00 | 44 | 1010.4 |
| 20260503224013 | 54 | 285 | 6.0 | 12.0 | 0.00 | 0.00 | 0.00 | 46 | 1010.5 |
| 20260503223513 | 54 | 325 | 6.0 | 11.0 | 0.00 | 0.00 | 0.00 | 45 | 1010.5 |
| 20260503223031 | 54 | 273 | 5.0 | 10.0 | 0.00 | 0.00 | 0.00 | 45 | 1010.5 |
| 20260503222513 | 54 | 278 | 5.0 | 10.0 | 0.00 | 0.00 | 0.00 | 45 | 1010.6 |
| 20260503222013 | 54 | 319 | 3.0 | 10.0 | 0.00 | 0.00 | 0.00 | 45 | 1010.5 |
| 20260503221533 | 54 | 292 | 4.0 | 13.0 | 0.00 | 0.00 | 0.00 | 45 | 1010.5 |
| 20260503221016 | 54 | 292 | 5.0 | 13.0 | 0.00 | 0.00 | 0.00 | 46 | 1010.6 |
| 20260503220516 | 55 | 290 | 6.0 | 12.0 | 0.00 | 0.00 | 0.00 | 45 | 1010.6 |
| 20260503220029 | 55 | 294 | 5.0 | 12.0 | 0.00 | 0.00 | 0.00 | 46 | 1010.6 |
| 20260503215514 | 55 | 334 | 6.0 | 19.0 | 0.00 | 0.00 | 0.00 | 44 | 1010.5 |
| 20260503215010 | 55 | 282 | 8.0 | 19.0 | 0.00 | 0.00 | 0.00 | 43 | 1010.4 |
| 20260503214540 | 56 | 294 | 8.0 | 19.0 | 0.00 | 0.00 | 0.00 | 44 | 1010.4 |
| 20260503214013 | 55 | 236 | 8.0 | 15.0 | 0.00 | 0.00 | 0.00 | 46 | 1010.5 |
| 20260503213512 | 55 | 32 | 7.0 | 13.0 | 0.00 | 0.00 | 0.00 | 46 | 1010.5 |
| 20260503213031 | 54 | 263 | 7.0 | 13.0 | 0.00 | 0.00 | 0.00 | 44 | 1010.5 |
| 20260503212514 | 55 | 293 | 5.0 | 11.0 | 0.00 | 0.00 | 0.00 | 46 | 1010.5 |
| 20260503212014 | 54 | 307 | 5.0 | 12.0 | 0.00 | 0.00 | 0.00 | 46 | 1010.5 |
| 20260503211534 | 54 | 297 | 6.0 | 15.0 | 0.00 | 0.00 | 0.00 | 46 | 1010.6 |
| 20260503211013 | 54 | 355 | 7.0 | 15.0 | 0.00 | 0.00 | 0.00 | 47 | 1010.6 |
| 20260503210514 | 53 | 273 | 5.0 | 20.0 | 0.00 | 0.00 | 0.00 | 46 | 1010.6 |
| 20260503210033 | 53 | 308 | 8.0 | 20.0 | 0.00 | 0.00 | 0.00 | 44 | 1010.6 |
| 20260503205513 | 54 | 261 | 9.0 | 16.0 | 0.00 | 0.00 | 0.00 | 44 | 1010.4 |
| 20260503205013 | 54 | 269 | 8.0 | 16.0 | 0.00 | 0.00 | 0.00 | 43 | 1010.4 |
| 20260503204534 | 54 | 248 | 9.0 | 15.0 | 0.00 | 0.00 | 0.00 | 42 | 1010.4 |
| 20260503204014 | 54 | 308 | 6.0 | 18.0 | 0.00 | 0.00 | 0.00 | 43 | 1010.3 |
| 20260503203510 | 55 | 252 | 7.0 | 18.0 | 0.00 | 0.00 | 0.00 | 42 | 1010.3 |
| 20260503203036 | 55 | 312 | 7.0 | 16.0 | 0.00 | 0.00 | 0.00 | 41 | 1010.3 |
| 20260503202514 | 55 | 9 | 7.0 | 20.0 | 0.00 | 0.00 | 0.00 | 43 | 1010.3 |
| 20260503202015 | 54 | 325 | 9.0 | 20.0 | 0.00 | 0.00 | 0.00 | 41 | 1010.3 |
| 20260503201532 | 54 | 325 | 8.0 | 15.0 | 0.00 | 0.00 | 0.00 | 43 | 1010.3 |
| 20260503201016 | 55 | 325 | 8.0 | 20.0 | 0.00 | 0.00 | 0.00 | 40 | 1010.3 |
| 20260503200513 | 55 | 256 | 11.0 | 20.0 | 0.00 | 0.00 | 0.00 | 39 | 1010.3 |
| 20260503200037 | 56 | 260 | 4.0 | 15.0 | 0.00 | 0.00 | 0.00 | 40 | 1010.3 |
| 20260503195510 | 55 | 329 | 8.0 | 18.0 | 0.00 | 0.00 | 0.00 | 41 | 1010.3 |
| 20260503195013 | 55 | 292 | 9.0 | 18.0 | 0.00 | 0.00 | 0.00 | 40 | 1010.4 |
| 20260503194532 | 54 | 276 | 9.0 | 14.0 | 0.00 | 0.00 | 0.00 | 40 | 1010.5 |
| 20260503194013 | 54 | 279 | 7.0 | 14.0 | 0.00 | 0.00 | 0.00 | 42 | 1010.4 |
| 20260503193513 | 53 | 23 | 7.0 | 13.0 | 0.00 | 0.00 | 0.00 | 40 | 1010.5 |
| 20260503193036 | 53 | 324 | 7.0 | 13.0 | 0.00 | 0.00 | 0.00 | 42 | 1010.7 |
| 20260503192512 | 53 | 339 | 7.0 | 12.0 | 0.00 | 0.00 | 0.00 | 40 | 1010.8 |
| 20260503192011 | 54 | 299 | 5.0 | 15.0 | 0.00 | 0.00 | 0.00 | 41 | 1010.9 |
| 20260503191531 | 53 | 289 | 7.0 | 15.0 | 0.00 | 0.00 | 0.00 | 39 | 1010.7 |